Location: Haliburton Scout Reserve
(45.0900°N, 78.3200°W)
Time: 04:49:31
(UTC-05:00)

Tiros 1 - All Passes

Search period start: 31 January 2023 00:00
Search period end: 10 February 2023 00:00
Orbit: 628 x 662 km, 48.4° (Epoch: 30 January)

Date Brightness Start Highest point End Pass type
(mag) Time Alt. Az. Time Alt. Az. Time Alt. Az.
31 Jan - 00:53:30 10° SSW 00:57:10 23° SE 01:00:51 10° E night (unlit)
31 Jan - 02:34:14 10° WSW 02:38:52 82° SSE 02:43:34 10° ENE night (unlit)
31 Jan - 04:16:39 10° W 04:21:14 57° N 04:25:54 10° ENE visible
31 Jan - 05:59:02 10° WNW 06:03:44 76° NNE 06:08:29 10° ESE visible
31 Jan - 07:41:22 10° WNW 07:45:43 38° SW 07:50:06 10° SSE daylight
01 Feb - 01:17:53 10° SW 01:22:16 45° SSE 01:26:43 10° ENE night (unlit)
01 Feb - 02:59:42 10° W 03:04:20 70° NNW 03:09:02 10° ENE visible
01 Feb - 04:42:14 10° WNW 04:46:51 59° N 04:51:31 10° E visible
01 Feb - 06:24:28 10° WNW 06:29:10 72° SSW 06:33:53 10° ESE visible
01 Feb - 08:07:24 10° W 08:10:47 20° SW 08:14:11 10° S daylight
02 Feb - 00:02:26 10° S 00:05:55 21° SE 00:09:25 10° E night (unlit)
02 Feb - 01:42:57 10° WSW 01:47:34 78° SSE 01:52:14 10° ENE night (unlit)
02 Feb - 03:25:19 10° W 03:29:55 58° N 03:34:33 10° ENE visible
02 Feb - 05:07:44 10° WNW 05:12:25 73° NNE 05:17:08 10° E visible
02 Feb - 06:50:02 10° WNW 06:54:26 41° SW 06:58:53 10° SE visible
03 Feb - 00:26:41 10° SW 00:31:00 41° SE 00:35:22 10° ENE night (unlit)
03 Feb - 02:08:23 10° W 02:13:01 72° NNW 02:17:41 10° ENE night (unlit)
03 Feb - 03:50:55 10° WNW 03:55:30 58° N 04:00:10 10° E visible
03 Feb - 05:33:10 10° WNW 05:37:52 77° SSW 05:42:35 10° ESE visible
03 Feb - 07:15:58 10° W 07:19:32 21° SW 07:23:06 10° S daylight
03 Feb - 23:11:23 10° S 23:14:40 19° SE 23:17:58 10° E night (unlit)
04 Feb - 00:51:40 10° WSW 00:56:16 73° SSE 01:00:54 10° ENE night (unlit)
04 Feb - 02:34:00 10° W 02:38:35 58° N 02:43:12 10° ENE night (unlit)
04 Feb - 04:16:25 10° WNW 04:21:05 70° NNE 04:25:47 10° E visible
04 Feb - 05:58:42 10° WNW 06:03:09 44° SSW 06:07:38 10° SE visible
04 Feb - 23:35:29 10° SSW 23:39:43 38° SE 23:44:00 10° ENE night (unlit)
05 Feb - 01:17:05 10° WSW 01:21:41 75° NNW 01:26:22 10° ENE night (unlit)
05 Feb - 02:59:35 10° WNW 03:04:11 57° N 03:08:48 10° E visible
05 Feb - 04:41:53 10° WNW 04:46:33 81° SSW 04:51:16 10° ESE visible
05 Feb - 06:24:33 10° W 06:28:15 23° SW 06:31:59 10° S visible
05 Feb - 22:20:21 10° S 22:23:25 18° SE 22:26:30 10° E night (unlit)
06 Feb - 00:00:23 10° SW 00:04:57 68° SSE 00:09:35 10° ENE night (unlit)
06 Feb - 01:42:39 10° W 01:47:14 59° N 01:51:51 10° ENE night (unlit)
06 Feb - 03:25:07 10° WNW 03:29:45 68° NNE 03:34:26 10° E visible
06 Feb - 05:07:22 10° WNW 05:11:52 48° SSW 05:16:23 10° SE visible
06 Feb - 06:51:54 10° WSW 06:53:11 11° SW 06:54:28 10° SSW visible
06 Feb - 22:44:17 10° SSW 22:48:27 35° SE 22:52:38 10° E night (unlit)
07 Feb - 00:25:45 10° WSW 00:30:21 79° NNW 00:35:02 10° ENE night (unlit)
07 Feb - 02:08:16 10° WNW 02:12:50 56° N 02:17:26 10° E night (unlit)
07 Feb - 03:50:33 10° WNW 03:55:13 86° SSW 03:59:56 10° ESE visible
07 Feb - 05:33:09 10° W 05:36:59 25° SW 05:40:50 10° SSE visible
07 Feb - 21:29:21 10° S 21:32:10 16° SE 21:34:58 10° E night (unlit)
07 Feb - 23:09:06 10° SW 23:13:39 63° SSE 23:18:15 10° ENE night (unlit)
08 Feb - 00:51:19 10° W 00:55:53 60° N 01:00:30 10° ENE night (unlit)
08 Feb - 02:33:47 10° WNW 02:38:24 65° NNE 02:43:04 10° E night (unlit)
08 Feb - 04:16:02 10° WNW 04:20:34 51° SSW 04:25:06 10° SE visible
08 Feb - 06:00:02 10° WSW 06:01:56 12° SW 06:03:49 10° SSW visible
08 Feb - 21:53:05 10° SSW 21:57:10 32° SE 22:01:15 10° E night (unlit)
08 Feb - 23:34:25 10° WSW 23:39:02 82° NNW 23:43:41 10° ENE night (unlit)
09 Feb - 01:16:55 10° WNW 01:21:29 56° N 01:26:04 10° E night (unlit)
09 Feb - 02:59:14 10° WNW 03:03:54 90° NNE 03:08:35 10° ESE night (unlit)
09 Feb - 04:41:45 10° W 04:45:42 28° SW 04:49:40 10° SSE visible
09 Feb - 20:38:25 10° SSE 20:40:55 14° SE 20:43:24 10° E night (unlit)
09 Feb - 22:17:49 10° SW 22:22:21 59° SSE 22:26:54 10° ENE night (unlit)
